Weather History for Danbury, CT

Change the Weather History Date:

Thursday, January 3, 2013

  Actual Average Record
Temperature  
Mean Temperature 17 °F -  
Max Temperature 27 °F 37 °F 58 °F (1979)
Min Temperature 7 °F 20 °F -1 °F (1981)
Degree Days  
Heating Degree Days 48    
Moisture  
Dew Point 7 °F    
Average Humidity 62    
Maximum Humidity 74    
Minimum Humidity 51    
Precipitation  
Precipitation 0.00 in - - ()
Sea Level Pressure  
Sea Level Pressure 30.14 in    
Wind  
Wind Speed 4 mph (West)    
Max Wind Speed 7 mph    
Max Gust Speed -    
Visibility 10 miles    
Events      
Averages and records for this station are not official NWS values.
T = Trace of Precipitation, MM = Missing Value Source: NWS Daily Summary

Daily Weather History Graph

Daily Weather History Graph

Search for Another Location

Airport:

Trip Planner

Search our weather history database for the weather conditions in past years. The results will help you decide how hot, cold, wet, or windy it might be!

Date:

Astronomy

Jan. 03, 2013 Rise Set
Actual Time 7:20 AM EST 4:37 PM EST
Civil Twilight 6:49 AM EST 5:08 PM EST
Nautical Twilight 6:14 AM EST 5:43 PM EST
Astronomical Twilight 5:40 AM EST 6:16 PM EST
Moon 11:14 PM EST (1/3) 10:26 AM EST (1/3)
Length of Visible Light 10h 19m
Length of Day
9h 17m
Waning Gibbous, 65% of the Moon is Illuminated
Jan 3
Waning Gibbous
Jan 4
Last Quarter
Jan 11
New
Jan 18
First Quarter
Jan 26
Full

Hourly Weather History & Observations

Time (EST) Temp. Windchill Dew Point Humidity Pressure Visibility Wind Dir Wind Speed Gust Speed Precip Events Conditions
12:53 AM 21.0 °F 16.2 °F 12.9 °F 71% 30.18 in 10.0 mi WNW 3.5 mph - N/A   Clear
1:53 AM 19.9 °F 11.1 °F 10.0 °F 65% 30.18 in 10.0 mi NW 6.9 mph - N/A   Clear
2:53 AM 18.0 °F 11.1 °F 6.1 °F 60% 30.18 in 10.0 mi NW 4.6 mph - N/A   Clear
3:53 AM 15.1 °F 6.4 °F 3.0 °F 59% 30.18 in 10.0 mi NW 5.8 mph - N/A   Clear
4:53 AM 12.9 °F - 1.9 °F 62% 30.19 in 10.0 mi Calm Calm - N/A   Clear
5:53 AM 10.0 °F 3.6 °F -0.0 °F 64% 30.19 in 10.0 mi NW 3.5 mph - N/A   Clear
6:53 AM 8.1 °F -0.5 °F -0.9 °F 67% 30.21 in 10.0 mi West 4.6 mph - N/A   Clear
7:53 AM 7.0 °F 0.1 °F -2.0 °F 67% 30.20 in 10.0 mi SW 3.5 mph - N/A   Clear
8:53 AM 7.0 °F -1.7 °F -0.9 °F 70% 30.19 in 10.0 mi SW 4.6 mph - N/A   Clear
9:53 AM 12.0 °F 4.1 °F -0.0 °F 59% 30.20 in 10.0 mi Variable 4.6 mph - N/A   Clear
10:53 AM 16.0 °F 6.3 °F 3.0 °F 57% 30.19 in 10.0 mi NNW 6.9 mph - N/A   Clear
11:53 AM 19.9 °F - 5.0 °F 52% 30.14 in 10.0 mi Calm Calm - N/A   Clear
12:53 PM 23.0 °F 14.7 °F 8.1 °F 53% 30.11 in 10.0 mi WNW 6.9 mph - N/A   Clear
1:53 PM 25.0 °F 17.1 °F 9.0 °F 51% 30.10 in 10.0 mi WNW 6.9 mph - N/A   Clear
2:53 PM 27.0 °F - 10.9 °F 51% 30.08 in 10.0 mi Calm Calm - N/A   Clear
3:53 PM 27.0 °F 19.5 °F 10.9 °F 51% 30.08 in 10.0 mi West 6.9 mph - N/A   Clear
4:53 PM 21.9 °F - 12.0 °F 66% 30.08 in 10.0 mi Calm Calm - N/A   Clear
5:53 PM 19.9 °F 14.9 °F 12.0 °F 71% 30.08 in 9.0 mi SW 3.5 mph - N/A   Clear
6:53 PM 19.9 °F 14.9 °F 12.9 °F 74% 30.09 in 10.0 mi SW 3.5 mph - N/A   Mostly Cloudy
8:53 PM 26.1 °F 19.4 °F 14.0 °F 60% 30.07 in 10.0 mi WSW 5.8 mph - N/A   Partly Cloudy
9:53 PM 26.1 °F 21.9 °F 15.1 °F 63% 30.07 in 10.0 mi WSW 3.5 mph - N/A   Mostly Cloudy
10:53 PM 26.1 °F 21.9 °F 15.1 °F 63% 30.07 in 10.0 mi WSW 3.5 mph - N/A   Partly Cloudy
11:53 PM 21.0 °F - 14.0 °F 74% 30.05 in 10.0 mi Calm Calm - N/A   Partly Cloudy